軌道要素
Epoch 2018 May 2.0 TT = JDT 2458240.5
T 2018 May 4.48353 TT Williams
q 2.3033490 (2000.0) P Q
n 0.14286538 Peri. 93.63902 +0.67894363 +0.73378677
a 3.6239710 Node 219.15869 -0.68798364 +0.62428799
e 0.3644130 Incl. 2.20916 -0.25634753 +0.26799529
P 6.90
From 185 observations 2018 June 8-2019 Dec. 19, mean residual 0".5.
|